Carolina, PR

7:20 AM AST on December 10, 2016 (GMT -0400)
Luis Munoz Marin International

Weather History for TJSJ - September, 2013

Change the Weather History Date:

Monday, September 23, 2013

  Actual Average Record
Temperature  
Mean Temperature 86 °F 83 °F  
Max Temperature 92 °F 89 °F 94 °F (1987)
Min Temperature 80 °F 78 °F 71 °F (1956)
Degree Days  
Heating Degree Days 0 0  
Month to date heating degree days 0 0  
Since 1 July heating degree days 0 0  
Cooling Degree Days 21 18  
Month to date cooling degree days 436 429  
Year to date cooling degree days 4352 4293  
Growing Degree Days 36 (Base 50)    
Moisture  
Dew Point 75 °F    
Average Humidity 73    
Maximum Humidity 85    
Minimum Humidity 60    
Precipitation  
Precipitation 0.00 in 0.18 in 2.00 in (1924)
Month to date precipitation 7.52 4.54  
Year to date precipitation 65.15 38.16  
Sea Level Pressure  
Sea Level Pressure 29.99 in    
Wind  
Wind Speed 8 mph (East)    
Max Wind Speed 21 mph    
Max Gust Speed 25 mph    
Visibility 10 miles    
Events      
T = Trace of Precipitation, MM = Missing Value Source: NWS Daily Summary

Daily Weather History Graph

Daily Weather History Graph

Search for Another Location

Airport or City:

Trip Planner

Search our weather history database for the weather conditions in past years. The results will help you decide how hot, cold, wet, or windy it might be!

Date:

Astronomy

Sep. 23, 2013 Rise Set
Actual Time 6:13 AM AST 6:19 PM AST
Civil Twilight 5:51 AM AST 6:40 PM AST
Nautical Twilight 5:26 AM AST 7:06 PM AST
Astronomical Twilight 5:00 AM AST 7:31 PM AST
Moon 9:27 PM AST (9/23) 9:51 AM AST (9/23)
Length of Visible Light 12h 49m
Length of Day
12h 06m
Waning Gibbous, 81% of the Moon is Illuminated
Sep 23
Waning Gibbous
Sep 26
Last Quarter
Oct 4
New
Oct 11
First Quarter
Oct 18
Full

Hourly Weather History & Observations

Time (AST) Temp. Heat Index Dew Point Humidity Pressure Visibility Wind Dir Wind Speed Gust Speed Precip Events Conditions
12:56 AM 82.0 °F 87.4 °F 73.0 °F 74% 29.98 in 9.0 mi Calm Calm - N/A   Clear
1:56 AM 82.0 °F 87.4 °F 73.0 °F 74% 29.98 in 9.0 mi Calm Calm - N/A   Clear
2:56 AM 80.1 °F 84.2 °F 73.0 °F 79% 29.97 in 9.0 mi Calm Calm - N/A   Clear
3:56 AM 81.0 °F 85.8 °F 73.0 °F 77% 29.97 in 10.0 mi Calm Calm - N/A   Clear
4:56 AM 81.0 °F 85.2 °F 72.0 °F 74% 29.98 in 10.0 mi Calm Calm - N/A   Clear
5:56 AM 80.1 °F 84.2 °F 73.0 °F 79% 29.99 in 10.0 mi Calm Calm - N/A   Partly Cloudy
6:56 AM 81.0 °F 85.8 °F 73.0 °F 77% 30.00 in 10.0 mi Calm Calm - N/A   Scattered Clouds
7:56 AM 84.0 °F 91.2 °F 73.9 °F 72% 30.02 in 10.0 mi Variable 3.5 mph - N/A   Scattered Clouds
8:56 AM 86.0 °F 95.1 °F 75.0 °F 70% 30.03 in 10.0 mi East 9.2 mph - N/A   Partly Cloudy
9:56 AM 88.0 °F 95.6 °F 73.0 °F 61% 30.04 in 10.0 mi ESE 5.8 mph - N/A   Scattered Clouds
10:56 AM 90.0 °F 101.3 °F 75.9 °F 63% 30.04 in 10.0 mi ENE 10.4 mph - N/A   Scattered Clouds
11:56 AM 90.0 °F 101.3 °F 75.9 °F 63% 30.01 in 10.0 mi ENE 13.8 mph - N/A   Scattered Clouds
12:56 PM 91.0 °F 102.9 °F 75.9 °F 61% 29.99 in 10.0 mi ENE 16.1 mph - N/A   Scattered Clouds
1:56 PM 91.0 °F 102.9 °F 75.9 °F 61% 29.96 in 10.0 mi ENE 18.4 mph - N/A   Scattered Clouds
2:56 PM 90.0 °F 101.3 °F 75.9 °F 63% 29.95 in 10.0 mi ENE 18.4 mph - N/A   Scattered Clouds
3:56 PM 89.1 °F 100.2 °F 75.9 °F 65% 29.94 in 10.0 mi ENE 15.0 mph - N/A   Scattered Clouds
4:56 PM 87.1 °F 98.8 °F 77.0 °F 72% 29.95 in 10.0 mi ENE 16.1 mph - N/A   Scattered Clouds
5:56 PM 84.9 °F 95.3 °F 77.0 °F 77% 29.96 in 10.0 mi East 16.1 mph - N/A   Scattered Clouds
6:56 PM 84.0 °F 93.7 °F 77.0 °F 79% 29.96 in 10.0 mi East 12.7 mph - N/A   Scattered Clouds
7:56 PM 84.0 °F 94.8 °F 78.1 °F 82% 29.99 in 10.0 mi East 9.2 mph - N/A   Partly Cloudy
8:56 PM 82.9 °F 91.8 °F 77.0 °F 82% 30.00 in 10.0 mi East 8.1 mph - N/A   Partly Cloudy
9:56 PM 84.0 °F 93.7 °F 77.0 °F 79% 30.01 in 10.0 mi East 5.8 mph - N/A   Partly Cloudy
10:56 PM 82.9 °F 90.8 °F 75.9 °F 79% 30.01 in 10.0 mi East 5.8 mph - N/A   Scattered Clouds
11:56 PM 82.9 °F 90.8 °F 75.9 °F 79% 30.00 in 10.0 mi Calm Calm - N/A   Partly Cloudy